Location: GMARS
(34.2910°N, 116.3838°W)
Time: 11:50:01
(UTC-07:00)

Envisat - Visible Passes

Search period start: 21 October 2019 00:00
Search period end: 31 October 2019 00:00
Orbit: 764 x 766 km, 98.1° (Epoch: 21 October)

Date Brightness Start Highest point End Pass type
(mag) Time Alt. Az. Time Alt. Az. Time Alt. Az.
21 Oct 5.3 19:52:36 10° SSW 19:56:38 24° W 20:00:42 10° NW visible
22 Oct 6.3 06:26:58 10° ENE 06:29:46 15° E 06:32:33 10° SE visible
22 Oct 3.7 19:14:45 10° S 19:19:44 57° W 19:24:44 10° NNW visible
23 Oct 3.0 18:38:02 10° SSE 18:43:00 59° ENE 18:48:00 10° N visible
23 Oct 6.1 20:20:12 10° WSW 20:22:21 13° W 20:24:30 10° WNW visible
24 Oct 4.9 19:40:52 10° SSW 19:45:19 31° W 19:49:47 10° NW visible
25 Oct 6.7 06:17:04 10° ENE 06:18:24 11° E 06:19:43 10° ESE visible
25 Oct 3.2 19:03:24 10° S 19:08:27 75° WSW 19:13:33 10° NNW visible
26 Oct 3.3 18:26:59 10° SE 18:31:47 46° ENE 18:36:37 10° N visible
26 Oct 5.8 20:07:47 10° SW 20:10:58 17° W 20:14:10 10° NW visible
27 Oct 4.4 19:29:16 10° SSW 19:34:00 40° W 19:38:45 10° NNW visible
28 Oct 2.9 18:52:08 10° SSE 18:57:12 85° ENE 19:02:18 10° N visible
29 Oct 3.6 18:16:00 10° SE 18:20:35 35° ENE 18:25:11 10° N visible
29 Oct 5.5 19:55:48 10° SW 19:59:38 22° W 20:03:29 10° NW visible
30 Oct 6.2 06:29:38 10° NE 06:32:46 16° E 06:35:54 10° SE visible
30 Oct 3.8 19:17:47 10° S 19:22:42 52° W 19:27:39 10° NNW visible
